Location: St. Louis
(38.6270°N, 90.1994°W)
Time: 19:31:10
(UTC-06:00)

Vanguard 3 - Pass Details

Date: 08 December 2021
Orbit: 508 x 3260 km, 33.3° (Epoch: 19 January)

Event Time Altitude Azimuth Distance (km) Brightness Sun altitude
Exits shadow 04:05:08 46° 243° (WSW) 3,983 10.1 -34.6°
Maximum altitude 04:13:24 73° 174° (S) 3,286 10.0 -33.0°
Drops below altitude 10° 04:30:21 10° 94° (E) 5,225 12.2 -29.7°
Sets 04:33:46 0° 92° (E) 5,946 12.8 -29.0°
